User: anonymous   Login
Location: Cicognara
(44.9500°N, 10.4667°E)
Time: 11:48:08
(UTC+00:00)
Language:

Cosmos 2034 Rocket - Orbit

View from above orbital plane
View from above orbital plane
View from above satellite
View from above satellite

Ground track
Ground track

The orbit data is extracted from the following two-line orbital elements,

1 20150U 89059B   21265.61929584  .00000064  00000-0  51138-4 0  9991
2 20150  82.9446  17.9735 0027743 249.6351 121.4433 13.75660179614440
Epoch (UTC): 22 September 2021 14:51:47
Eccentricity: 0.0027743
inclination: 82.9446°
perigee height: 959 km
apogee height: 1000 km
right ascension of ascending node: 17.9735°
argument of perigee: 249.6351°
revolutions per day: 13.75660179
mean anomaly at epoch: 121.4433°
orbit number at epoch: 61444

The dashed part of the orbit path shows where the satellite is in the earth's shadow,  

DLR